CW9669 Weather Reports


Display with metric or nautical units.
time (UTC)temp
F
wind
direction
speed
MPH
gust
MPH
rain 1hr
in
rain 24hr
in
rain mn
in
humidity
%
barometer
mb
20260831105403 50 315 0.0 0.0 0.00 0.00 0.00 86 1010.8
20260831104405 50 315 0.0 0.0 0.00 0.00 0.00 85 1010.7
20260831103403 51 315 0.0 0.0 0.00 0.00 0.00 85 1010.7
20260831102401 51 315 0.0 0.0 0.00 0.00 0.00 84 1010.8
20260831101401 52 315 0.0 0.0 0.00 0.00 0.00 83 1010.8
20260831100401 52 315 0.0 0.0 0.00 0.00 0.00 84 1011.0
20260831095401 51 315 0.0 0.0 0.00 0.00 0.00 84 1011.1
20260831094401 51 315 0.0 0.0 0.00 0.00 0.00 83 1011.1
20260831093402 52 315 0.0 0.0 0.00 0.00 0.00 83 1011.3
20260831093323 52 315 0.0 0.0 0.00 0.00 0.00 82 1011.3
20260831091401 53 315 0.0 0.0 0.00 0.00 0.00 80 1011.4
20260831090400 53 315 0.0 0.0 0.00 0.00 0.00 79 1011.4
20260831085401 54 315 0.0 0.0 0.00 0.00 0.00 78 1011.5
20260831084816 55 315 0.0 0.0 0.00 0.00 0.00 78 1011.7
20260831084540 54 315 0.0 0.0 0.00 0.00 0.00 78 1011.5
20260831082403 55 315 0.0 0.0 0.00 0.00 0.00 79 1011.7
20260831081401 55 315 0.0 0.0 0.00 0.00 0.00 78 1011.7
20260831080403 55 315 0.0 0.0 0.00 0.00 0.00 77 1011.7
20260831075400 56 315 0.0 0.0 0.00 0.00 0.00 76 1011.8
20260831074400 56 315 0.0 0.0 0.00 0.00 0.00 76 1011.8
20260831073400 57 315 0.0 0.0 0.00 0.00 0.00 75 1011.9
20260831072400 58 315 0.0 0.0 0.00 0.00 0.00 74 1012.0
20260831071400 58 315 0.0 0.0 0.00 0.00 0.00 73 1012.0
20260831071018 58 244 0.0 0.0 0.00 0.00 0.00 73 1012.1
20260831065359 59 244 0.0 0.0 0.00 0.00 0.00 73 1012.0
20260831064834 59 255 0.0 0.0 0.00 0.00 0.00 73 1012.2
20260831063401 59 255 0.0 0.0 0.00 0.00 0.00 73 1012.1
20260831062401 59 255 0.0 0.0 0.00 0.00 0.00 72 1012.1
20260831061359 60 255 0.0 0.0 0.00 0.00 0.00 71 1012.2
20260831060400 60 255 0.0 0.0 0.00 0.00 0.00 72 1012.2
20260831055359 60 255 0.0 0.0 0.00 0.00 0.00 74 1012.3
20260831054357 60 255 0.0 0.0 0.00 0.00 0.00 72 1012.4
20260831053358 60 255 0.0 0.0 0.00 0.00 0.00 70 1012.4
20260831052355 61 255 0.0 0.0 0.00 0.00 0.00 69 1012.4
20260831051359 61 255 0.0 0.0 0.00 0.00 0.00 68 1012.5
20260831050355 62 255 0.0 0.0 0.00 0.00 0.00 66 1012.7
20260831045845 63 255 0.0 1.0 0.00 0.00 0.00 64 1012.8
20260831044355 63 254 0.0 0.0 0.00 0.00 0.00 62 1012.7
20260831043356 64 255 0.0 0.0 0.00 0.00 0.00 60 1012.9
20260831042358 65 255 0.0 0.0 0.00 0.00 0.00 58 1012.8
20260831041839 67 255 0.0 0.0 0.00 0.00 0.00 56 1012.8
20260831040355 68 255 0.0 4.0 0.00 0.00 0.00 54 1012.7
20260831035355 68 328 1.0 4.0 0.00 0.00 0.00 53 1012.7
20260831034841 69 346 1.0 5.0 0.00 0.00 0.00 52 1012.6
20260831033355 69 317 1.0 7.0 0.00 0.00 0.00 51 1012.5
20260831032353 70 313 1.0 4.0 0.00 0.00 0.00 50 1012.5
20260831031354 70 333 2.0 8.0 0.00 0.00 0.00 49 1012.5
20260831030354 71 309 3.0 10.0 0.00 0.00 0.00 48 1012.5
20260831025355 71 327 2.0 6.0 0.00 0.00 0.00 48 1012.5
20260831024354 72 292 2.0 9.0 0.00 0.00 0.00 47 1012.5
20260831024314 72 329 3.0 13.0 0.00 0.00 0.00 45 1012.5
20260831022354 73 332 3.0 10.0 0.00 0.00 0.00 43 1012.5
20260831021353 73 312 3.0 10.0 0.00 0.00 0.00 40 1012.5
20260831020836 74 300 4.0 11.0 0.00 0.00 0.00 38 1012.6
20260831015353 75 340 4.0 10.0 0.00 0.00 0.00 37 1012.6
20260831014353 75 312 4.0 11.0 0.00 0.00 0.00 35 1012.6
20260831013354 76 292 3.0 9.0 0.00 0.00 0.00 34 1012.7
20260831012347 76 302 5.0 15.0 0.00 0.00 0.00 34 1012.8
20260831011347 77 339 4.0 16.0 0.00 0.00 0.00 34 1012.8
20260831010348 77 313 5.0 11.0 0.00 0.00 0.00 35 1012.8
20260831005830 77 295 4.0 11.0 0.00 0.00 0.00 35 1013.0
20260831004348 77 34 4.0 9.0 0.00 0.00 0.00 35 1013.1
20260831003348 77 306 4.0 12.0 0.00 0.00 0.00 35 1013.0
20260831002826 77 34 4.0 14.0 0.00 0.00 0.00 36 1013.1
20260831002318 77 326 4.0 14.0 0.00 0.00 0.00 35 1013.3
20260831000347 76 315 5.0 13.0 0.00 0.00 0.00 36 1013.4
20260830235341 76 29 5.0 12.0 0.00 0.00 0.00 36 1013.4
20260830234824 77 30 6.0 16.0 0.00 0.00 0.00 36 1013.6
20260830233342 77 355 4.0 13.0 0.00 0.00 0.00 36 1013.7
20260830232819 77 331 4.0 12.0 0.00 0.00 0.00 37 1013.9
20260830231358 76 308 5.0 14.0 0.00 0.00 0.00 37 1014.0
20260830230346 76 336 5.0 12.0 0.00 0.00 0.00 37 1014.1
20260830225342 76 293 5.0 11.0 0.00 0.00 0.00 37 1014.3
20260830224341 76 344 5.0 16.0 0.00 0.00 0.00 39 1014.4
20260830223341 76 36 4.0 13.0 0.00 0.00 0.00 39 1014.5
20260830222342 76 286 5.0 13.0 0.00 0.00 0.00 39 1014.8
20260830221818 76 316 4.0 10.0 0.00 0.00 0.00 39 1014.8
20260830220341 75 307 5.0 11.0 0.00 0.00 0.00 40 1015.0
20260830215343 75 323 4.0 12.0 0.00 0.00 0.00 40 1015.1
20260830214335 74 291 5.0 15.0 0.00 0.00 0.00 41 1015.4
20260830213337 74 329 4.0 10.0 0.00 0.00 0.00 42 1015.4
20260830212336 74 349 5.0 14.0 0.00 0.00 0.00 43 1015.5
20260830211335 74 321 5.0 10.0 0.00 0.00 0.00 44 1015.8
20260830210822 73 295 5.0 12.0 0.00 0.00 0.00 45 1015.9
20260830205335 73 327 5.0 13.0 0.00 0.00 0.00 45 1016.1
20260830204336 73 296 4.0 11.0 0.00 0.00 0.00 46 1016.2
20260830203336 72 335 5.0 10.0 0.00 0.00 0.00 47 1016.1
20260830202339 72 272 4.0 11.0 0.00 0.00 0.00 47 1016.3
20260830201335 71 286 5.0 13.0 0.00 0.00 0.00 48 1016.4
20260830200336 71 329 4.0 10.0 0.00 0.00 0.00 49 1016.5
20260830195823 70 35 3.0 10.0 0.00 0.00 0.00 51 1016.6
20260830194335 69 331 5.0 14.0 0.00 0.00 0.00 52 1017.0
20260830193335 69 322 4.0 10.0 0.00 0.00 0.00 52 1017.1
20260830192337 68 296 4.0 17.0 0.00 0.00 0.00 55 1017.2
20260830191339 68 343 4.0 9.0 0.00 0.00 0.00 57 1017.4
20260830190335 67 300 4.0 11.0 0.00 0.00 0.00 58 1017.6
20260830185337 67 290 3.0 8.0 0.00 0.00 0.00 58 1017.7
20260830184336 66 36 3.0 9.0 0.00 0.00 0.00 61 1017.7
20260830183337 65 294 3.0 9.0 0.00 0.00 0.00 62 1017.9
20260830182333 65 11 3.0 8.0 0.00 0.00 0.00 63 1017.9
20260830181333 64 29 4.0 9.0 0.00 0.00 0.00 65 1018.1
20260830180329 63 304 2.0 5.0 0.00 0.00 0.00 67 1018.1
20260830175329 61 339 3.0 9.0 0.00 0.00 0.00 69 1018.2
20260830174328 61 265 2.0 8.0 0.00 0.00 0.00 70 1018.2
20260830173814 60 281 2.0 7.0 0.00 0.00 0.00 71 1018.2
20260830172327 60 330 1.0 5.0 0.00 0.00 0.00 72 1018.2
20260830171805 59 306 1.0 8.0 0.00 0.00 0.00 75 1018.3
20260830170758 58 319 1.0 4.0 0.00 0.00 0.00 76 1018.3
20260830165327 57 281 1.0 2.0 0.00 0.00 0.00 77 1018.4
20260830164327 56 10 0.0 2.0 0.00 0.00 0.00 79 1018.5
20260830163327 55 12 0.0 2.0 0.00 0.00 0.00 81 1018.6
20260830162809 54 26 0.0 2.0 0.00 0.00 0.00 82 1018.7
20260830161323 53 29 0.0 3.0 0.00 0.00 0.00 83 1018.8
20260830160804 52 350 0.0 1.0 0.00 0.00 0.00 85 1018.9
20260830155820 51 144 0.0 0.0 0.00 0.00 0.00 87 1019.0
20260830155246 50 143 0.0 1.0 0.00 0.00 0.00 89 1019.0
20260830153324 50 143 0.0 0.0 0.00 0.00 0.00 91 1019.1
20260830152819 49 155 0.0 0.0 0.00 0.00 0.00 92 1019.2
20260830151757 48 171 0.0 0.0 0.00 0.00 0.00 93 1019.2
20260830150323 47 170 0.0 0.0 0.00 0.00 0.00 93 1019.2
20260830145324 47 171 0.0 0.0 0.00 0.00 0.00 93 1019.2
20260830144810 47 171 0.0 0.0 0.00 0.00 0.00 93 1019.1
20260830143815 46 171 0.0 0.0 0.00 0.00 0.00 92 1019.2
20260830142325 46 171 0.0 0.0 0.00 0.00 0.00 92 1019.1
20260830141805 47 171 0.0 0.0 0.00 0.00 0.00 92 1019.0
20260830140324 46 171 0.0 0.0 0.00 0.00 0.00 92 1019.0
20260830135811 47 171 0.0 0.0 0.00 0.00 0.00 91 1018.9
20260830134324 47 171 0.0 0.0 0.00 0.00 0.00 91 1018.8
20260830133323 47 171 0.0 0.0 0.00 0.00 0.00 91 1018.8
20260830132325 47 40 0.0 0.0 0.00 0.00 0.00 92 1018.9
20260830131324 47 40 0.0 0.0 0.00 0.00 0.00 91 1018.8
20260830130323 48 347 0.0 0.0 0.00 0.00 0.00 91 1018.8
20260830125327 48 347 0.0 0.0 0.00 0.00 0.00 91 1018.7
20260830124324 48 347 0.0 0.0 0.00 0.00 0.00 90 1018.8
20260830123822 49 347 0.0 0.0 0.00 0.00 0.00 90 1018.8
20260830122800 49 347 0.0 0.0 0.00 0.00 0.00 90 1018.8
20260830121322 49 347 0.0 0.0 0.00 0.00 0.00 89 1018.7
20260830120322 49 347 0.0 0.0 0.00 0.00 0.00 88 1018.6
20260830115322 50 347 0.0 0.0 0.00 0.00 0.00 88 1018.6
20260830114321 51 347 0.0 0.0 0.00 0.00 0.00 87 1018.6
20260830113323 51 347 0.0 0.0 0.00 0.00 0.00 87 1018.6
20260830112321 51 347 0.0 2.0 0.00 0.00 0.00 86 1018.4
20260830111320 52 346 0.0 2.0 0.00 0.00 0.00 86 1018.3
20260830110818 52 306 0.0 1.0 0.00 0.00 0.00 86 1018.3